Temp
8 9 9 9 8 8 8 9 10 8 8 7 7 7 8 8 8 8 8 8 8 7 7 7 7 7 6 6 6 6 6 6 6 6 6 6 6 6 6 6 6 5 5 5 5 5 4 4 4
8 8 9 8 8 8 9 10 9 9 8 7 8 7 7 6 6 7 7 8 7 7 7 7 7 6 6 6 6 6 6 6 6 6 6 6 6 6 6 5 5 5 5 5 4 4 4 4 4
8 8 8 8 8 8 9 8 8 8 7 7 7 6 5 5 7 8 7 7 8 8 7 7 7 6 6 6 6 6 6 6 6 6 6 6 5 5 5 5 5 5 5 4 4 4 4 4 4
8 8 8 8 8 9 9 8 8 7 6 6 7 6 5 6 7 7 7 8 8 7 7 7 6 6 6 6 7 6 6 6 6 6 6 5 5 5 5 5 5 5 5 4 4 4 4 4 4
7 8 8 8 9 8 9 8 8 7 7 6 7 8 6 7 7 7 8 8 7 7 6 6 6 6 6 7 6 6 6 6 6 6 5 5 5 5 4 4 4 4 4 4 4 3 3 3 3
8 8 7 8 8 8 9 8 8 8 7 8 8 7 7 7 7 7 7 7 7 6 6 6 6 6 7 6 6 6 6 6 6 6 5 5 5 5 5 4 4 4 4 3 3 3 3 3 2
7 8 8 8 8 8 9 8 8 7 7 8 8 8 7 7 7 7 7 6 6 6 6 6 6 6 6 6 6 6 6 6 5 5 5 5 5 4 4 4 4 3 3 3 3 2 2 2 2
7 7 8 8 8 7 8 8 7 8 8 8 8 8 8 7 6 7 6 6 6 6 6 6 6 6 6 6 6 6 5 5 5 5 5 5 4 4 4 4 3 3 3 3 2 2 2 2 2
7 8 8 7 8 8 7 7 8 8 8 8 8 8 8 7 6 6 6 6 6 6 6 6 6 6 6 6 6 5 5 5 5 5 5 4 4 4 4 4 3 3 3 2 2 2 2 2 1
7 8 8 8 8 8 6 8 7 8 7 8 8 8 8 7 6 6 6 6 6 6 6 6 6 6 5 5 5 5 5 5 5 4 4 4 4 4 3 3 3 3 2 2 2 2 2 1 1
8 8 8 8 8 8 8 7 8 8 8 7 7 7 7 7 6 6 6 5 5 6 6 6 6 5 5 5 5 5 5 4 4 4 4 4 3 3 3 3 2 2 2 2 2 1 1 1 1
8 8 9 8 8 8 8 8 8 8 7 8 7 7 7 7 7 7 6 6 5 5 5 6 6 5 4 5 5 4 4 4 4 4 3 3 3 2 2 2 2 1 1 1 1 1 1 1 1
8 9 9 9 8 8 8 8 8 8 7 8 7 7 7 7 7 7 6 5 5 5 5 5 4 4 4 4 4 3 3 3 3 3 3 3 2 2 1 1 1 1 1 1 0 -0 -0 -0 -1
8 8 9 9 8 8 8 8 8 8 8 7 7 7 6 6 6 6 6 5 5 5 4 4 3 3 3 3 3 2 2 2 2 2 2 2 2 1 1 1 1 0 0 -0 -1 -1 -1 -1 -1
9 8 9 9 8 8 8 8 8 8 8 8 7 7 6 6 6 5 5 5 4 4 4 4 3 3 3 3 2 1 0 1 1 2 2 1 1 1 0 0 -0 -0 -1 -1 -2 -2 -1 -2 -1
8 8 8 7 8 8 8 8 7 7 8 7 7 7 6 6 5 5 5 5 5 4 4 4 3 3 2 1 1 1 0 1 1 1 1 1 1 0 -0 -1 -1 -2 -2 -2 -2 -2 -2 -2 -2
8 8 8 8 8 8 8 8 8 8 7 7 7 7 6 6 5 5 5 5 5 4 4 3 3 3 2 1 1 1 2 2 1 1 0 0 -0 -1 -1 -2 -2 -2 -2 -2 -2 -2 -2 -2 -1
8 8 8 8 8 8 8 8 8 8 7 7 7 7 7 6 5 5 5 4 4 4 4 4 3 2 2 2 1 1 1 1 0 -0 -1 -1 -1 -1 -1 -1 -2 -2 -2 -2 -2 -2 -2 -2 -2
8 9 9 8 8 8 8 8 7 7 7 7 7 7 7 6 6 5 5 4 4 4 3 3 2 2 2 1 1 1 0 -0 -0 -1 -1 -1 -2 -2 -2 -2 -2 -2 -2 -2 -2 -2 -2 -3 -3
9 9 8 7 8 8 7 8 7 7 7 7 7 7 6 6 6 6 5 5 5 4 3 3 2 2 1 1 1 -0 -1 -1 -1 -1 -1 -2 -2 -2 -2 -2 -2 -2 -2 -2 -2 -3 -4 -5 -5
8 8 7 8 7 7 6 7 6 7 7 6 6 6 5 5 5 5 5 4 4 4 4 3 2 2 1 1 0 -0 -1 -1 -1 -1 -1 -1 -1 -1 -1 -2 -2 -2 -2 -3 -4 -5 -6 -6 -7
8 7 7 8 8 6 6 3 4 5 5 5 4 4 4 4 4 4 4 4 4 4 2 2 1 1 0 -0 -1 -1 -1 -1 -1 -1 -1 -1 -1 -2 -2 -2 -3 -4 -5 -6 -7 -7 -7 -7 -8
7 7 7 7 7 6 6 6 4 3 4 4 4 3 3 4 4 4 4 3 3 3 2 1 1 0 -0 0 -0 -0 -0 -0 -1 -1 -1 -1 -2 -2 -3 -4 -5 -6 -6 -6 -7 -8 -8 -9 -9
7 6 6 6 6 4 6 5 3 5 6 4 4 4 3 3 3 3 2 1 2 2 1 0 0 -0 -0 -0 -1 -1 -2 -2 -2 -2 -3 -3 -4 -4 -4 -6 -7 -7 -7 -8 -8 -9 -10 -10 -10
6 7 5 3 1 0 4 4 6 6 5 4 4 3 3 3 3 3 3 2 2 1 1 0 -0 -1 -1 -2 -2 -2 -3 -3 -3 -3 -4 -4 -5 -6 -7 -7 -7 -8 -8 -9 -10 -10 -11 -12 -11
6 6 6 2 -1 2 4 4 5 6 4 3 3 2 3 3 3 3 3 2 1 1 0 -0 -1 -1 -2 -2 -2 -2 -2 -3 -3 -4 -4 -5 -6 -6 -7 -7 -7 -8 -9 -10 -11 -10 -12 -12 -12
6 6 6 5 3 2 3 3 4 5 3 3 3 3 3 3 3 3 2 2 1 0 -0 -1 -2 -3 -3 -3 -2 -2 -3 -3 -3 -4 -5 -6 -7 -7 -7 -8 -8 -10 -11 -12 -12 -12 -12 -13 -13
6 6 6 5 1 -0 1 2 4 4 3 3 3 3 3 3 2 2 2 1 1 -0 -1 -1 -2 -2 -3 -3 -3 -3 -3 -4 -5 -6 -6 -7 -7 -8 -8 -9 -11 -12 -12 -13 -13 -13 -14 -14 -14
5 5 5 5 4 -2 -4 2 4 4 4 4 4 3 2 2 2 2 1 0 -0 -1 -2 -2 -3 -3 -4 -3 -4 -4 -5 -6 -6 -7 -7 -8 -8 -8 -9 -10 -11 -13 -13 -13 -13 -14 -14 -15 -14
5 5 5 5 3 3 2 4 4 4 3 3 3 2 2 2 2 1 0 -0 -2 -2 -2 -3 -4 -4 -4 -4 -5 -6 -6 -7 -7 -8 -8 -8 -9 -9 -10 -11 -12 -13 -14 -14 -14 -15 -15 -14 -14
Height
3149 3149 3150 3151 3156 3152 3152 3155 3155 3157 3154 3154 3156 3158 3159 3162 3162 3168 3166 3167 3166 3168 3171 3174 3176 3178 3181 3183 3184 3186 3186 3187 3187 3187 3187 3186 3184 3183 3182 3182 3181 3179 3177 3176 3175 3174 3173 3173 3171
3146 3148 3148 3150 3154 3151 3150 3153 3156 3156 3155 3156 3156 3158 3159 3160 3161 3164 3166 3167 3166 3168 3171 3173 3176 3178 3180 3182 3184 3185 3185 3185 3186 3187 3187 3186 3184 3183 3182 3181 3180 3179 3178 3176 3176 3174 3173 3171 3169
3145 3146 3148 3148 3151 3149 3150 3153 3153 3156 3156 3159 3159 3159 3161 3162 3160 3162 3163 3166 3166 3169 3171 3175 3176 3178 3181 3182 3183 3183 3185 3185 3185 3186 3186 3184 3184 3184 3183 3181 3180 3179 3178 3177 3176 3174 3172 3171 3169
3143 3145 3147 3149 3148 3150 3149 3151 3148 3156 3159 3156 3160 3160 3164 3160 3161 3161 3164 3164 3166 3169 3172 3175 3178 3179 3181 3182 3182 3183 3184 3184 3185 3185 3185 3184 3184 3184 3183 3181 3181 3180 3178 3177 3176 3175 3172 3171 3168
3142 3143 3146 3147 3147 3147 3149 3150 3151 3157 3155 3156 3156 3159 3157 3161 3159 3161 3163 3165 3167 3169 3173 3176 3178 3179 3181 3181 3181 3182 3183 3184 3184 3184 3184 3184 3184 3184 3183 3182 3182 3180 3179 3177 3176 3174 3172 3170 3168
3141 3143 3145 3145 3146 3145 3147 3149 3151 3156 3158 3156 3155 3155 3157 3160 3160 3163 3163 3165 3167 3171 3174 3176 3178 3179 3180 3180 3180 3181 3182 3183 3184 3184 3185 3184 3184 3183 3183 3182 3181 3180 3179 3177 3175 3173 3171 3169 3168
3140 3142 3145 3146 3149 3147 3148 3151 3155 3157 3156 3156 3156 3157 3158 3158 3159 3163 3164 3166 3168 3171 3175 3176 3177 3178 3179 3179 3179 3180 3181 3182 3183 3184 3184 3184 3184 3183 3182 3181 3181 3179 3178 3177 3174 3173 3170 3168 3166
3140 3142 3145 3144 3148 3149 3150 3153 3155 3154 3155 3157 3159 3159 3157 3156 3159 3163 3166 3169 3169 3172 3174 3176 3177 3178 3178 3179 3179 3181 3181 3182 3183 3184 3184 3184 3183 3182 3181 3181 3179 3178 3177 3176 3173 3173 3170 3168 3165
3139 3142 3143 3146 3148 3150 3154 3155 3155 3155 3156 3158 3159 3159 3159 3160 3162 3165 3167 3168 3170 3172 3175 3176 3176 3178 3178 3179 3179 3181 3182 3183 3184 3184 3184 3183 3182 3181 3178 3181 3179 3177 3176 3174 3171 3170 3169 3166 3164
3140 3142 3143 3146 3149 3150 3155 3153 3156 3156 3157 3158 3159 3159 3160 3162 3164 3165 3167 3169 3171 3173 3174 3175 3176 3177 3177 3179 3180 3182 3183 3184 3184 3185 3183 3181 3180 3180 3179 3179 3177 3175 3173 3171 3169 3167 3166 3164 3162
3139 3141 3144 3146 3149 3151 3151 3152 3155 3156 3158 3159 3159 3159 3159 3161 3163 3165 3167 3169 3171 3173 3174 3174 3176 3176 3179 3180 3181 3181 3183 3183 3183 3183 3182 3180 3180 3178 3177 3176 3174 3172 3170 3169 3166 3164 3163 3160 3159
3139 3141 3143 3145 3146 3149 3150 3154 3156 3157 3160 3159 3160 3159 3160 3162 3164 3165 3168 3169 3171 3172 3174 3176 3177 3178 3179 3179 3181 3181 3182 3181 3181 3182 3180 3179 3177 3175 3173 3172 3171 3169 3167 3165 3162 3160 3157 3155 3153
3139 3141 3143 3143 3146 3149 3152 3155 3156 3158 3159 3160 3160 3161 3163 3165 3166 3167 3169 3171 3173 3174 3176 3176 3177 3178 3179 3180 3180 3180 3181 3179 3178 3179 3177 3175 3174 3172 3169 3169 3167 3164 3161 3159 3156 3154 3151 3149 3147
3140 3142 3143 3145 3147 3150 3152 3155 3157 3159 3160 3160 3162 3163 3164 3167 3168 3170 3172 3173 3174 3175 3176 3176 3177 3176 3175 3176 3176 3176 3176 3175 3175 3175 3173 3172 3170 3168 3167 3165 3162 3158 3155 3152 3150 3148 3145 3143 3141
3141 3143 3144 3146 3148 3150 3153 3155 3158 3160 3161 3162 3163 3164 3165 3166 3168 3170 3172 3174 3175 3175 3175 3174 3173 3173 3173 3172 3172 3170 3167 3170 3171 3169 3168 3166 3165 3163 3160 3157 3155 3152 3149 3146 3144 3141 3138 3136 3133
3142 3143 3144 3146 3148 3150 3153 3155 3156 3159 3162 3162 3163 3164 3165 3166 3167 3170 3172 3173 3172 3172 3173 3172 3171 3171 3170 3171 3166 3157 3161 3166 3165 3164 3163 3162 3160 3158 3155 3154 3151 3147 3144 3140 3137 3134 3131 3128 3124
3142 3142 3143 3146 3149 3150 3153 3154 3155 3157 3160 3161 3162 3163 3164 3165 3167 3168 3169 3170 3171 3171 3170 3169 3168 3166 3165 3164 3154 3161 3161 3162 3163 3162 3159 3157 3156 3153 3151 3148 3145 3141 3138 3134 3131 3126 3122 3118 3115
3141 3142 3144 3146 3149 3149 3150 3153 3154 3156 3158 3160 3161 3162 3163 3164 3166 3167 3168 3168 3168 3169 3168 3167 3165 3164 3163 3163 3161 3161 3159 3158 3158 3157 3155 3152 3149 3147 3144 3141 3139 3135 3131 3127 3123 3118 3114 3109 3104
3140 3141 3143 3145 3147 3148 3150 3152 3154 3155 3157 3158 3159 3160 3162 3163 3164 3166 3166 3167 3167 3166 3166 3165 3163 3163 3162 3160 3159 3157 3156 3155 3155 3152 3149 3146 3144 3141 3138 3135 3130 3126 3121 3117 3112 3108 3103 3098 3093
3138 3138 3139 3139 3144 3147 3148 3151 3152 3154 3156 3157 3158 3159 3161 3161 3163 3164 3163 3164 3164 3164 3164 3163 3161 3160 3159 3157 3156 3155 3154 3153 3150 3147 3144 3141 3137 3134 3131 3127 3122 3117 3112 3105 3099 3094 3090 3085 3081
3138 3138 3138 3138 3141 3146 3148 3150 3151 3153 3154 3154 3155 3157 3159 3160 3161 3162 3163 3163 3163 3162 3161 3160 3159 3157 3156 3155 3154 3153 3152 3149 3145 3142 3138 3134 3132 3128 3123 3117 3111 3105 3099 3094 3088 3084 3080 3074 3071
3138 3139 3140 3140 3140 3144 3147 3151 3150 3151 3152 3152 3154 3156 3157 3158 3160 3160 3162 3161 3161 3160 3159 3157 3156 3155 3155 3154 3153 3150 3148 3144 3140 3136 3131 3126 3122 3117 3112 3106 3099 3093 3087 3082 3076 3071 3068 3063 3059
3139 3139 3141 3142 3142 3143 3146 3147 3148 3150 3150 3151 3152 3154 3156 3157 3157 3157 3159 3160 3161 3159 3157 3156 3155 3154 3152 3150 3148 3145 3141 3137 3132 3127 3122 3116 3111 3105 3100 3094 3088 3082 3077 3072 3066 3061 3056 3051 3047
3138 3140 3141 3142 3142 3144 3143 3145 3144 3144 3146 3148 3151 3153 3153 3154 3153 3155 3155 3156 3158 3157 3155 3153 3152 3150 3147 3145 3141 3136 3131 3127 3122 3117 3111 3105 3100 3095 3090 3083 3077 3071 3065 3059 3053 3048 3044 3040 3037
3137 3138 3140 3144 3145 3143 3141 3142 3140 3141 3143 3147 3150 3151 3150 3150 3151 3152 3153 3153 3154 3153 3151 3148 3145 3143 3140 3136 3132 3127 3123 3118 3112 3106 3100 3094 3088 3083 3076 3070 3064 3058 3054 3048 3043 3040 3035 3030 3025
3136 3137 3137 3143 3145 3140 3140 3139 3137 3137 3141 3146 3149 3148 3147 3148 3149 3150 3150 3150 3150 3148 3145 3142 3139 3137 3133 3128 3123 3117 3112 3107 3102 3096 3091 3085 3078 3071 3065 3059 3055 3050 3044 3039 3034 3029 3023 3020 3016
3135 3135 3136 3136 3138 3139 3138 3136 3135 3134 3138 3142 3144 3144 3145 3146 3146 3146 3146 3146 3144 3142 3139 3137 3134 3131 3127 3122 3117 3111 3106 3100 3094 3089 3082 3075 3068 3062 3056 3049 3044 3040 3034 3029 3024 3018 3016 3012 3007
3134 3136 3136 3135 3139 3142 3136 3134 3131 3131 3134 3138 3139 3141 3141 3142 3143 3143 3142 3140 3139 3137 3134 3130 3128 3124 3121 3116 3110 3104 3098 3091 3084 3078 3073 3066 3059 3052 3046 3038 3033 3029 3022 3019 3015 3011 3007 3003 2999
3134 3134 3134 3135 3135 3136 3139 3131 3129 3130 3132 3133 3135 3137 3138 3139 3139 3137 3135 3134 3133 3130 3127 3123 3120 3117 3111 3105 3099 3093 3086 3081 3076 3070 3064 3056 3050 3042 3035 3028 3024 3020 3016 3012 3009 3004 3000 2997 2993
3132 3133 3133 3133 3135 3134 3134 3129 3127 3128 3130 3131 3132 3134 3135 3134 3133 3132 3130 3129 3126 3122 3121 3117 3112 3106 3103 3097 3089 3082 3077 3072 3065 3059 3053 3046 3039 3033 3026 3021 3017 3013 3009 3006 3002 2998 2995 2990 2986
Wind_Speed
12 9 8 12 5 10 10 6 6 6 13 13 14 10 11 8 6 3 3 13 15 14 13 11 10 8 6 6 4 2 3 5 4 6 5 7 11 10 8 8 11 15 16 16 15 14 12 11 12
11 11 11 9 8 11 7 12 3 7 11 15 10 7 10 6 7 3 6 17 14 10 10 11 10 8 7 6 3 3 5 4 6 7 8 11 8 7 8 11 14 14 15 16 15 15 15 14 14
12 12 8 5 10 10 4 13 16 20 15 10 6 8 5 6 5 3 14 15 12 11 14 11 10 9 6 4 2 5 5 6 8 8 9 6 6 8 9 12 13 14 15 16 16 17 17 17 17
12 12 9 9 11 17 3 13 18 17 9 9 1 5 8 4 6 8 12 11 14 16 15 12 10 8 5 3 5 5 7 8 9 6 3 5 7 8 10 11 13 13 14 16 17 17 18 19 18
16 11 10 7 7 13 12 11 17 12 9 6 4 6 4 7 7 9 12 15 16 16 13 11 9 7 5 4 5 7 8 7 3 2 5 7 6 8 10 12 14 15 17 18 19 19 19 18 18
15 12 6 9 5 6 17 15 13 6 4 7 5 4 6 9 11 13 17 18 16 12 12 10 8 6 4 5 6 5 2 2 3 5 5 7 8 9 11 13 15 17 17 17 20 21 21 21 20
12 14 5 3 9 15 19 15 15 6 5 9 5 3 6 11 19 13 16 16 16 14 11 8 5 3 5 4 2 3 4 4 4 5 7 7 8 10 12 14 16 17 16 16 20 22 21 21 22
13 13 3 11 11 15 13 11 12 8 12 10 6 1 2 11 17 15 15 15 15 12 8 4 2 2 3 4 6 5 4 5 6 6 6 5 6 9 12 14 16 17 17 18 18 20 21 20 21
15 8 8 12 13 16 7 8 13 12 9 9 5 5 8 13 18 15 12 11 9 7 5 3 2 5 6 8 6 5 5 5 5 4 4 6 8 11 12 14 16 19 21 23 22 23 21 20 21
16 4 11 16 16 17 13 10 17 14 8 5 2 1 7 9 13 11 9 7 5 4 3 3 6 9 8 6 6 6 4 4 2 4 7 9 13 16 17 17 17 19 22 24 24 25 23 22 21
7 2 8 16 11 3 3 13 14 7 4 2 2 4 6 6 8 8 8 7 4 2 5 8 8 8 6 5 4 3 1 1 3 6 9 13 15 18 19 19 19 20 22 24 27 28 24 23 25
4 1 16 11 11 11 13 11 5 4 4 8 10 11 9 10 11 11 8 7 7 6 8 7 5 9 6 4 2 3 4 5 6 9 12 16 16 19 20 20 20 23 26 29 30 28 28 30 32
5 13 6 18 19 15 14 8 2 5 4 4 8 13 18 19 21 19 17 10 9 5 7 6 7 3 5 3 4 7 9 10 10 13 16 18 18 20 22 21 22 27 29 32 32 33 34 37 39
6 11 11 15 17 12 11 6 3 6 6 6 7 11 14 14 14 14 13 12 9 7 4 1 0 5 6 7 10 9 10 12 13 16 18 18 18 20 21 23 28 33 34 34 35 36 38 43 43
13 14 14 16 17 14 9 6 6 4 6 9 11 8 9 7 8 8 7 7 6 4 1 3 8 12 13 14 14 12 5 13 13 18 16 18 19 21 26 32 34 35 36 36 38 40 43 46 47
15 8 12 15 16 12 9 6 9 6 4 7 8 7 6 5 4 4 4 4 5 3 4 9 15 19 24 24 13 17 23 18 16 16 16 18 22 25 31 32 33 33 36 41 42 46 47 51 50
10 7 6 12 10 8 11 4 14 8 7 5 7 7 8 8 8 7 5 7 8 6 9 14 21 29 27 24 18 22 13 13 16 17 18 23 24 27 32 32 33 33 40 47 47 49 52 53 52
12 12 11 9 11 9 9 12 11 13 11 11 11 11 11 12 12 11 9 9 11 13 13 15 24 23 24 22 22 19 16 15 16 18 22 27 30 32 34 35 37 43 44 46 49 50 51 53 54
5 8 12 13 11 16 15 10 6 15 13 15 14 15 16 17 17 15 15 14 13 14 15 17 19 20 22 20 19 20 20 19 20 26 27 32 32 35 38 40 42 45 47 50 53 55 55 51 50
6 9 12 13 20 17 14 12 13 17 16 16 16 17 19 20 19 17 16 16 15 16 15 16 18 21 21 17 18 17 19 23 28 28 31 35 34 37 40 44 46 48 50 54 55 53 52 50 50
6 5 9 16 17 10 11 9 12 18 17 16 14 11 10 5 1 4 6 8 10 13 17 18 18 20 22 21 22 23 22 23 25 28 32 35 38 40 45 49 50 54 52 52 48 50 51 50 49
8 7 8 16 17 9 13 6 11 14 14 11 8 6 6 7 2 4 5 5 12 17 15 15 18 18 18 16 20 22 26 29 32 37 42 45 48 50 52 55 54 50 49 51 53 56 57 54 45
6 5 6 8 10 11 13 5 15 16 16 15 12 11 10 6 2 7 5 13 22 15 9 12 12 13 18 22 25 29 32 36 40 44 46 48 51 54 54 54 53 52 54 57 55 51 49 48 47
12 7 7 5 6 3 13 10 14 26 26 22 18 15 11 7 8 9 3 12 11 11 14 12 13 18 20 27 32 37 40 42 45 49 47 50 52 52 52 51 49 48 48 47 44 47 51 37 42
10 10 1 1 0 4 8 10 16 14 26 23 16 14 10 9 8 11 17 20 12 16 16 18 21 24 28 34 36 39 42 44 45 47 50 52 52 50 49 48 48 49 49 44 43 49 41 45 42
9 13 5 6 3 4 7 6 7 13 22 19 13 13 15 12 15 20 17 17 18 18 19 20 23 26 30 36 43 45 45 45 47 49 50 50 50 49 51 52 51 49 46 41 47 50 45 45 36
4 4 8 3 3 2 4 6 6 11 22 23 22 22 19 18 22 21 20 22 22 23 23 23 22 26 32 40 44 44 45 46 48 49 48 47 48 50 50 50 46 30 45 36 38 33 37 37 36
5 6 2 2 3 2 3 6 8 16 23 24 26 23 21 20 22 22 23 24 26 27 27 29 29 31 35 41 43 43 43 44 45 45 45 46 46 46 47 46 37 36 36 35 34 35 33 32 34
7 3 2 2 1 5 1 5 8 13 15 16 20 21 21 22 22 24 27 27 29 29 29 31 33 36 40 40 41 42 43 43 43 43 44 44 45 45 44 43 40 40 41 40 34 28 31 34 34
7 5 4 3 3 3 2 7 8 12 20 23 23 23 23 23 25 27 30 30 29 29 29 33 37 41 38 38 40 43 44 45 45 45 46 46 45 43 41 40 37 34 29 30 27 30 31 32 33
Wind_Direction
215 232 233 229 233 235 224 226 247 129 126 124 140 166 167 177 133 267 167 206 167 162 173 164 160 164 174 184 202 274 324 329 334 329 317 324 328 340 351 356 357 358 357 355 358 359 360 359 356
215 231 243 211 222 220 207 238 216 231 129 150 166 129 162 207 85 102 189 212 167 151 157 158 158 174 177 187 210 310 315 319 324 326 326 333 354 11 10 4 5 9 7 7 4 1 356 351 349
206 217 218 192 218 234 185 179 157 116 110 28 348 193 10 274 334 201 196 195 157 148 151 153 165 176 180 198 267 300 302 311 323 325 333 2 30 24 13 12 17 17 15 15 11 4 359 354 351
200 202 215 231 241 229 149 162 195 229 267 282 112 272 268 297 155 160 173 157 152 151 143 159 169 167 181 231 273 278 292 309 316 324 13 43 34 22 25 29 28 21 15 12 10 6 2 356 353
199 202 198 220 250 257 230 192 199 187 184 171 14 336 129 164 140 153 155 153 148 140 151 156 160 170 210 226 255 281 296 308 322 50 49 39 38 44 43 30 21 16 11 10 10 7 3 1 0
192 199 210 213 307 257 182 179 160 200 137 209 248 120 193 142 133 160 159 146 133 140 149 156 164 177 212 253 272 283 318 73 77 64 57 55 49 41 24 16 12 7 6 9 8 3 2 1 0
188 190 228 197 120 135 150 170 138 152 184 181 130 201 171 154 141 153 150 143 141 146 148 145 163 211 254 249 165 132 124 107 89 84 74 56 41 29 20 11 5 2 1 1 4 357 353 354 354
166 190 232 182 155 104 103 160 196 188 158 157 163 65 201 161 146 144 138 140 138 141 141 152 195 219 164 138 125 128 112 107 105 86 59 39 30 20 16 9 3 358 354 349 347 347 343 344 345
177 182 197 150 174 140 130 165 177 191 206 178 161 88 93 158 151 151 142 134 139 148 165 185 170 142 132 113 122 117 114 105 84 55 28 12 5 356 355 351 354 352 349 343 339 336 333 331 335
178 188 157 188 206 206 203 226 226 192 184 159 164 122 93 138 145 141 131 124 136 162 163 151 138 140 124 111 112 105 76 85 49 2 359 353 347 340 334 330 328 335 339 336 330 328 328 324 325
197 110 150 163 177 172 145 190 190 196 183 99 33 184 123 131 138 136 130 135 138 132 138 140 134 121 120 112 101 93 38 187 333 336 336 333 330 329 325 321 317 321 323 324 322 324 321 321 317
214 138 163 168 182 210 209 205 199 138 115 86 81 83 114 101 96 91 92 99 111 139 143 116 95 93 75 82 21 333 299 280 302 308 313 318 323 325 322 318 312 313 319 323 325 320 317 316 319
231 149 153 202 192 208 213 189 169 155 188 108 87 89 99 96 92 90 86 121 148 118 112 117 72 91 50 359 342 337 304 288 294 297 311 311 311 315 315 313 304 311 321 321 321 319 318 321 321
204 172 157 175 197 185 172 180 211 158 121 100 106 91 107 102 96 94 91 107 142 129 128 104 200 209 214 236 243 249 260 273 284 291 302 305 303 306 305 303 308 317 315 315 316 315 313 316 314
167 192 189 180 185 176 188 197 198 194 119 81 107 106 128 141 122 116 113 110 113 119 28 305 265 261 249 247 240 239 295 280 288 288 295 301 306 316 324 320 315 310 310 312 312 309 307 310 309
172 186 185 174 182 183 187 203 206 196 149 115 151 169 163 190 195 164 171 176 148 160 257 273 275 266 266 264 261 300 348 304 289 289 294 310 312 319 318 311 306 304 303 306 301 299 303 304 305
167 159 148 178 198 205 208 199 213 199 193 208 215 206 216 220 230 237 251 290 290 279 265 284 281 274 288 251 313 332 329 297 283 290 298 309 305 304 306 297 292 290 296 302 298 299 301 303 303
196 195 183 180 192 204 218 235 208 205 200 217 238 234 239 243 240 249 268 278 284 281 275 286 272 284 295 306 321 325 325 311 290 288 296 305 308 301 288 289 295 296 296 294 294 296 297 299 300
183 202 234 229 220 213 222 243 251 201 200 223 243 248 252 255 262 260 258 262 279 289 277 273 280 284 293 306 316 321 320 305 299 298 300 301 296 293 294 297 296 296 294 293 292 296 298 298 296
242 258 273 222 212 216 222 229 229 205 213 233 248 258 256 258 263 274 271 264 276 277 284 286 281 280 290 305 318 316 309 299 299 302 301 303 302 303 304 300 295 293 294 296 298 302 300 297 296
266 206 172 169 167 193 204 194 195 208 225 240 244 239 239 232 179 306 277 264 278 284 285 282 290 301 312 313 313 310 304 304 307 308 307 305 304 302 303 305 300 304 301 301 298 303 302 296 299
228 197 178 176 177 160 182 156 190 203 212 213 210 193 178 171 229 297 281 327 340 333 324 322 322 322 316 316 316 305 303 308 306 305 304 305 304 306 307 311 310 307 304 302 301 303 298 297 293
202 173 165 171 193 175 189 173 199 195 199 201 187 174 184 186 352 274 346 4 334 314 311 341 337 327 319 314 320 321 319 317 315 315 310 306 308 309 310 310 306 305 299 297 299 299 298 299 302
209 169 148 177 200 201 218 216 212 208 217 203 191 184 199 211 229 250 9 358 332 299 306 327 322 324 323 327 331 328 322 316 311 311 309 308 309 308 306 303 300 297 296 295 299 303 306 307 311
200 192 112 17 181 221 214 222 240 238 224 214 207 202 211 227 254 301 311 310 307 306 304 307 321 325 323 328 322 315 311 310 311 311 311 310 311 310 307 307 309 307 306 306 305 302 297 313 305
206 207 202 200 189 212 186 235 237 236 220 202 209 219 239 250 273 295 301 303 302 297 300 306 313 318 318 318 316 314 313 313 312 312 312 312 312 312 313 311 309 307 306 292 298 293 316 311 300
205 199 211 131 133 166 216 256 254 209 194 203 214 229 243 257 286 295 302 297 293 304 300 300 301 303 313 315 313 310 310 311 312 312 314 315 316 313 310 308 309 300 303 308 304 301 310 303 303
209 167 180 175 134 278 254 257 227 191 199 205 221 237 248 271 283 287 289 293 289 296 290 288 292 296 305 313 309 309 311 316 317 317 317 316 314 313 311 312 308 311 301 310 318 314 308 307 309
160 183 201 167 183 160 245 255 241 231 226 237 244 240 252 268 272 278 274 273 273 275 279 277 303 305 318 311 311 316 319 319 319 319 318 317 317 316 314 311 307 300 303 311 307 304 306 312 309
205 212 232 230 227 217 223 273 244 228 229 240 238 241 253 261 268 271 264 263 264 271 287 298 301 321 315 312 318 322 324 323 322 322 324 323 321 317 311 306 308 307 310 304 304 304 309 311 312